Cancun, Mexico

4:23 AM on March 27, 2017 (GMT +0000)
Cancun International

Weather History for MMUN - December, 2013

Change the Weather History Date:

Sunday, December 22, 2013

  Actual Average Record
Temperature  
Mean Temperature 82 °F -  
Max Temperature 86 °F 81 °F 87 °F (1997)
Min Temperature 77 °F 64 °F 55 °F (2003)
Cooling Degree Days 16    
Growing Degree Days 32 (Base 50)    
Moisture  
Dew Point 75 °F    
Average Humidity 82    
Maximum Humidity 89    
Minimum Humidity 70    
Precipitation  
Precipitation 0.00 in - - ()
Sea Level Pressure  
Sea Level Pressure 29.97 in    
Wind  
Wind Speed 11 mph ()    
Max Wind Speed 20 mph    
Max Gust Speed -    
Visibility 6.9 miles    
Events      
Averages and records for this station are not official NWS values.
T = Trace of Precipitation, MM = Missing Value Source: Averaged Metar Reports

Daily Weather History Graph

Daily Weather History Graph

Search for Another Location

Airport or City:

Trip Planner

Search our weather history database for the weather conditions in past years. The results will help you decide how hot, cold, wet, or windy it might be!

Date:

Astronomy

Dec. 22, 2013 Rise Set
Actual Time 6:20 AM CST 5:11 PM CST
Civil Twilight 5:56 AM CST 5:36 PM CST
Nautical Twilight 5:28 AM CST 6:03 PM CST
Astronomical Twilight 5:01 AM CST 6:31 PM CST
Moon 9:49 PM CST (12/22) 9:48 AM CST (12/22)
Length of Visible Light 11h 39m
Length of Day
10h 51m
Waning Gibbous, 76% of the Moon is Illuminated
Dec 22
Waning Gibbous
Dec 25
Last Quarter
Jan 1
New
Jan 7
First Quarter
Jan 15
Full

Hourly Weather History & Observations

Time (CST) Temp. Heat Index Dew Point Humidity Pressure Visibility Wind Dir Wind Speed Gust Speed Precip Events Conditions
12:45 AM 78.8 °F - 71.6 °F 78% 29.95 in 6.0 mi SE 10.4 mph - N/A   Mostly Cloudy
1:44 AM 78.8 °F - 73.4 °F 83% 29.94 in 6.0 mi SSE 10.4 mph - N/A   Mostly Cloudy
2:46 AM 78.8 °F - 73.4 °F 83% 29.89 in 7.0 mi SE 12.7 mph - N/A   Mostly Cloudy
3:45 AM 78.8 °F - 73.4 °F 83% 29.93 in 7.0 mi SE 13.8 mph - N/A   Mostly Cloudy
4:44 AM 78.8 °F - 73.4 °F 83% 29.93 in 7.0 mi SE 13.8 mph - N/A   Scattered Clouds
5:45 AM 78.8 °F - 73.4 °F 83% 29.93 in 7.0 mi SE 15.0 mph - N/A   Scattered Clouds
6:44 AM 78.8 °F - 73.4 °F 83% 29.96 in 7.0 mi SE 12.7 mph - N/A   Scattered Clouds
7:41 AM 80.6 °F 86.2 °F 75.2 °F 84% 29.98 in 7.0 mi SE 10.4 mph - N/A   Mostly Cloudy
8:44 AM 82.4 °F 89.5 °F 75.2 °F 79% 30.00 in 7.0 mi SE 11.5 mph - N/A   Mostly Cloudy
9:42 AM 84.2 °F 92.3 °F 75.2 °F 74% 30.02 in 7.0 mi SE 19.6 mph - N/A   Mostly Cloudy
10:40 AM 84.2 °F 92.3 °F 75.2 °F 74% 30.02 in 7.0 mi ESE 16.1 mph - N/A   Mostly Cloudy
11:41 AM 86.0 °F 95.1 °F 75.2 °F 70% 29.97 in 7.0 mi SE 16.1 mph - N/A   Mostly Cloudy
12:42 PM 86.0 °F 96.9 °F 77.0 °F 74% 29.96 in 7.0 mi SE 13.8 mph - N/A   Mostly Cloudy
1:41 PM 84.2 °F 92.3 °F 75.2 °F 74% 29.95 in 7.0 mi SE 13.8 mph - N/A   Mostly Cloudy
2:43 PM 84.2 °F 92.3 °F 75.2 °F 74% 29.89 in 7.0 mi SSE 15.0 mph - N/A   Mostly Cloudy
3:43 PM 80.6 °F 86.2 °F 75.2 °F 84% 29.96 in 7.0 mi SE 11.5 mph - N/A   Mostly Cloudy
4:46 PM 80.6 °F 86.2 °F 75.2 °F 84% 29.97 in 7.0 mi SE 9.2 mph - N/A   Scattered Clouds
5:44 PM 78.8 °F - 75.2 °F 89% 29.96 in 7.0 mi ESE 6.9 mph - N/A   Scattered Clouds
6:42 PM 77.0 °F - 73.4 °F 89% 30.01 in 7.0 mi SE 4.6 mph - N/A   Scattered Clouds
7:43 PM 78.8 °F - 75.2 °F 89% 30.02 in 7.0 mi ESE 9.2 mph - N/A   Clear
8:42 PM 78.8 °F - 75.2 °F 89% 30.01 in 7.0 mi ESE 8.1 mph - N/A   Clear
9:43 PM 78.8 °F - 75.2 °F 89% 30.05 in 7.0 mi ESE 6.9 mph - N/A   Scattered Clouds
10:43 PM 78.8 °F - 75.2 °F 89% 30.04 in 7.0 mi SE 11.5 mph - N/A   Scattered Clouds
11:45 PM 78.8 °F - 75.2 °F 89% 30.02 in 7.0 mi ESE 11.5 mph - N/A   Scattered Clouds